Weather History for VIAR - October, 2012

Change the Weather History Date:

Sunday, October 28, 2012

  Actual Average Record
Temperature  
Mean Temperature 68 °F -  
Max Temperature 84 °F 83 °F 91 °F (1999)
Min Temperature 53 °F 58 °F 53 °F (2003)
Cooling Degree Days 4    
Growing Degree Days 18 (Base 50)    
Moisture  
Dew Point 60 °F    
Average Humidity 69    
Maximum Humidity 94    
Minimum Humidity 40    
Precipitation  
Precipitation 0.00 in - - ()
Sea Level Pressure  
Sea Level Pressure 29.99 in    
Wind  
Wind Speed 0 mph ()    
Max Wind Speed 5 mph    
Max Gust Speed -    
Visibility 2.5 miles    
Events      
Averages and records for this station are not official NWS values.
T = Trace of Precipitation, MM = Missing Value Source: Averaged Metar Reports

Daily Weather History Graph

Daily Weather History Graph

Search for Another Location

Airport or City:

Trip Planner

Search our weather history database for the weather conditions in past years. The results will help you decide how hot, cold, wet, or windy it might be!

Date:

Astronomy

Oct. 28, 2012 Rise Set
Actual Time 6:43 AM IST 5:44 PM IST
Civil Twilight 6:18 AM IST 6:09 PM IST
Nautical Twilight 5:50 AM IST 6:38 PM IST
Astronomical Twilight 5:21 AM IST 7:06 PM IST
Moon 4:46 PM IST (10/28) 5:13 AM IST (10/28)
Length of Visible Light 11h 51m
Length of Day
11h 01m
Waxing Gibbous, 98% of the Moon is Illuminated
Oct 28
Waxing Gibbous
Oct 30
Full
Nov 7
Last Quarter
Nov 14
New
Nov 20
First Quarter

Hourly Weather History & Observations

Time (IST) Temp. Heat Index Dew Point Humidity Pressure Visibility Wind Dir Wind Speed Gust Speed Precip Events Conditions
1:00 AM 66.2 °F - 59.0 °F 78% 29.98 in 1.9 mi Calm Calm - N/A   Haze
2:30 AM 63 °F - 58 °F 78% 29.97 in 1 mi Calm Calm - -   Haze
3:00 AM 59.0 °F - 57.2 °F 94% 29.98 in 1.2 mi Calm Calm - N/A   Mist
3:30 AM 59.0 °F - 57.2 °F 94% 29.98 in 1.2 mi Calm Calm - N/A   Mist
5:30 AM 56 °F - 53 °F 88% 29.98 in 1 mi Calm Calm - -   Mist
5:30 AM 55.4 °F - 53.6 °F 94% 29.98 in 1.2 mi Calm Calm - N/A   Mist
6:30 AM 53.6 °F - 51.8 °F 94% 29.98 in 1.2 mi Calm Calm - N/A   Mist
7:00 AM 53.6 °F - 51.8 °F 94% 29.98 in 1.2 mi Calm Calm - N/A   Partly Cloudy
8:30 AM 60 °F - 54 °F 76% 30.03 in 1 mi Calm Calm - -   Mist
10:30 AM 66.2 °F - 55.4 °F 68% 30.06 in 3.1 mi Calm Calm - N/A   Haze
11:30 AM 74 °F - 60 °F 51% 30.03 in 2 mi Calm Calm - -  
11:30 AM 75.2 °F - 59.0 °F 57% 30.06 in 3.7 mi Calm Calm - N/A   Unknown
12:00 PM 77.0 °F - 59.0 °F 54% 30.04 in 3.7 mi Calm Calm - N/A   Unknown
12:30 PM 77.0 °F - 59.0 °F 54% 30.04 in 3.7 mi Calm Calm - N/A   Unknown
1:00 PM 78.8 °F - 59.0 °F 51% 30.04 in 3.7 mi West 4.6 mph - N/A   Unknown
1:30 PM 80.6 °F 81.1 °F 59.0 °F 48% 30.01 in 3.7 mi Variable 2.3 mph - N/A   Unknown
2:30 PM 82 °F - 62 °F 40% 29.96 in 2 mi 2.3 mph - -  
2:30 PM 82.4 °F 82.9 °F 60.8 °F 48% 29.98 in 3.7 mi Variable 2.3 mph - N/A   Unknown
3:00 PM 82.4 °F 83.4 °F 62.6 °F 51% 29.98 in 3.7 mi Variable 2.3 mph - N/A   Unknown
3:30 PM 82.4 °F 83.4 °F 62.6 °F 51% 29.98 in 3.7 mi Variable 2.3 mph - N/A   Unknown
4:30 PM 80.6 °F 81.8 °F 62.6 °F 54% 29.98 in 3.7 mi Calm Calm - N/A   Unknown
5:00 PM 80.6 °F 81.8 °F 62.6 °F 54% 29.95 in 3.7 mi Calm Calm - N/A   Unknown
5:30 PM 80 °F - 67 °F 56% 29.93 in 2 mi Calm Calm - -  
6:30 PM 77.0 °F - 68.0 °F 74% 29.98 in 3.7 mi Calm Calm - N/A   Unknown
7:00 PM 77.0 °F - 66.2 °F 69% 29.98 in 3.1 mi Calm Calm - N/A   Haze
7:30 PM 75.2 °F - 66.2 °F 73% 29.98 in 3.1 mi Calm Calm - N/A   Haze
8:00 PM 73.4 °F - 66.2 °F 78% 29.98 in 2.5 mi Calm Calm - N/A   Haze
8:30 PM 71.6 °F - 64.4 °F 78% 29.98 in 2.5 mi Calm Calm - N/A   Haze
9:00 PM 69.8 °F - 62.6 °F 78% 29.98 in 2.5 mi Calm Calm - N/A   Haze
9:30 PM 69.8 °F - 62.6 °F 78% 29.98 in 2.5 mi Calm Calm - N/A   Haze
10:30 PM 68.0 °F - 60.8 °F 78% 29.98 in 2.2 mi Calm Calm - N/A   Haze
11:30 PM 65 °F - 60 °F 78% 29.99 in 1 mi Calm Calm - -   Mist